Location: Lahitte
(43.6596°N, 0.6805°E)
Time: 19:26:11
(UTC+00:00)

Cosmos 2151 - Pass Details

Date: 15 May 2026
Orbit: 556 x 575 km, 82.5° (Epoch: 7 June)

Event Time Altitude Azimuth Distance (km) Brightness Sun altitude
Rises 20:50:52 0° 354° (N) 2,769 7.3 -14.6°
Reaches altitude 10° 20:53:05 10° 358° (N) 1,864 6.2 -14.9°
Maximum altitude 20:57:09 64° 80° (E) 622 2.9 -15.4°
Enters shadow 20:59:07 29° 154° (SSE) 1,051 3.7 -15.7°
